DIRECTV 10

导读

DIRECTV 10是美国DirecTV集团的高清电视直播卫星,由波音公司基于波音702平台制造,于美国东部时间2007年7月7日发射升空,定轨于西经102.8°地球同步轨道。 作为DirecTV新一代全Ka波段高清直播卫星组网的第三颗卫星,它搭载多台Ka波段行波管放大器,配备大口径天线,采用MPEG-4编码,可支持超高清电视信号传输,为美国用户提供了大量本地与全国高清电视服务,大幅拓展了直播卫星传输能力。

基本信息
目录编号:
31862
目录名称:
DIRECTV 10
国际标识:
2007-032A
轨道中心:
EARTH
卫星名称:
DIRECTV 10
卫星全名:
--
卫星状态:
在轨 (已飞行6924 天)
发射日期:
2007-07-07 UTC
国别 :
美国 (US)
星等 :
--
轨道信息
数据来源 国际轨道数据 AOE轨道数据
星历时间 2026-06-20T15:47:04+0800
18小时前
查看轨道信息
2026-06-21T06:00:00+0800
4小时前
查看轨道信息
半长轴 42715.533km 42715.388km
偏心率 0.0006323 0.000643
轨道倾角 0.416° 0.417°
近地点辐角 318.651° 318.959°
升交点赤经 89.768° 89.740°
平近点角 355.199° 204.613°
近地点 36310.386km 36309.785km
远地点 36364.406km 36364.717km
周期 1464.328分钟 1464.321分钟
每日圈数 0.983386 0.983391
详细信息
使用方式:
暂无
2D轨道图
3D轨道图
轨道高度分析图
轨道倾角分析图
轨道综合分析图
查看轨道综合分析图